﻿_id,日時,平均風速(m/s),平均風向,最大瞬間風速(m/s),最大風速時風向,気温(℃),湿度(%),10分間移動積算雨量(mm),1時間移動積算雨量(mm),日雨量(mm),累計雨量(mm)
1,2019-07-22T00:00:00,4.7,南南東,8.4,南,27.6,77.3,0,0,0,0
2,2019-07-22T00:01:00,4.5,南南東,8.4,南,27.5,77.5,0,0,0,0
3,2019-07-22T00:02:00,4.4,南南東,8.4,南,27.5,77.7,0,0,0,0
4,2019-07-22T00:03:00,4.2,南南東,8.4,南,27.5,77.7,0,0,0,0
5,2019-07-22T00:04:00,4.1,南南東,6.8,南東,27.5,77.6,0,0,0,0
6,2019-07-22T00:05:00,4.2,南南東,7.1,南東,27.5,77.5,0,0,0,0
7,2019-07-22T00:06:00,4.3,南南東,7.1,南東,27.6,77.4,0,0,0,0
8,2019-07-22T00:07:00,4.2,南南東,7.1,南東,27.6,77.2,0,0,0,0
9,2019-07-22T00:08:00,4.1,南南東,7.1,南東,27.5,77.4,0,0,0,0
10,2019-07-22T00:09:00,4.1,南南東,7.1,南東,27.5,77.6,0,0,0,0
11,2019-07-22T00:10:00,4.1,南南東,7.1,南東,27.5,77.7,0,0,0,0
12,2019-07-22T00:11:00,4.2,南南東,7.1,南東,27.5,77.6,0,0,0,0
13,2019-07-22T00:12:00,4.4,南南東,7.4,南南東,27.6,77.3,0,0,0,0
14,2019-07-22T00:13:00,4.5,南南東,7.5,南南東,27.6,77,0,0,0,0
15,2019-07-22T00:14:00,4.5,南南東,7.5,南南東,27.7,76.8,0,0,0,0
16,2019-07-22T00:15:00,4.5,南南東,7.5,南南東,27.6,76.8,0,0,0,0
17,2019-07-22T00:16:00,4.6,南南東,8.2,南,27.7,76.7,0,0,0,0
18,2019-07-22T00:17:00,4.8,南南東,8.2,南,27.7,76.6,0,0,0,0
19,2019-07-22T00:18:00,4.9,南南東,8.2,南,27.7,76.6,0,0,0,0
20,2019-07-22T00:19:00,4.9,南南東,8.2,南,27.6,76.6,0,0,0,0
21,2019-07-22T00:20:00,,"",,"",,,,,,
22,2019-07-22T00:21:00,5,南南東,8.2,南,27.6,76.6,0,0,0,0
23,2019-07-22T00:22:00,5,南南東,8.2,南,27.7,76.5,0,0,0,0
24,2019-07-22T00:23:00,5,南南東,8.2,南,27.6,76.6,0,0,0,0
25,2019-07-22T00:24:00,5,南南東,8.2,南,27.6,76.7,0,0,0,0
26,2019-07-22T00:25:00,4.9,南南東,8.2,南,27.6,76.7,0,0,0,0
27,2019-07-22T00:26:00,4.8,南南東,7.3,南南東,27.6,76.7,0,0,0,0
28,2019-07-22T00:27:00,4.7,南南東,7.3,南南東,27.6,76.9,0,0,0,0
29,2019-07-22T00:28:00,4.7,南南東,7.7,南,27.5,77.1,0,0,0,0
30,2019-07-22T00:29:00,4.8,南,7.7,南,27.6,77,0,0,0,0
31,2019-07-22T00:30:00,4.8,南,7.7,南,27.6,77,0,0,0,0
32,2019-07-22T00:31:00,4.8,南南東,7.7,南,27.6,77,0,0,0,0
33,2019-07-22T00:32:00,4.7,南南東,7.7,南,27.6,77,0,0,0,0
34,2019-07-22T00:33:00,4.5,南南東,7.7,南,27.5,77.1,0,0,0,0
35,2019-07-22T00:34:00,4.5,南南東,7.7,南,27.6,77.1,0,0,0,0
36,2019-07-22T00:35:00,4.4,南南東,7.7,南,27.6,77.1,0,0,0,0
37,2019-07-22T00:36:00,4.5,南南東,7.7,南,27.6,77,0,0,0,0
38,2019-07-22T00:37:00,4.7,南南東,7.7,南,27.6,76.8,0,0,0,0
39,2019-07-22T00:38:00,4.6,南南東,7.3,南東,27.7,76.7,0,0,0,0
40,2019-07-22T00:39:00,4.6,南南東,7.3,南東,27.6,76.8,0,0,0,0
41,2019-07-22T00:40:00,4.5,南南東,7.3,南東,27.6,76.9,0,0,0,0
42,2019-07-22T00:41:00,4.4,南南東,7.3,南東,27.5,77.1,0,0,0,0
43,2019-07-22T00:42:00,4.4,南南東,7.3,南東,27.5,77.2,0,0,0,0
44,2019-07-22T00:43:00,4.4,南南東,7.3,南東,27.6,77,0,0,0,0
45,2019-07-22T00:44:00,4.6,南南東,9.3,南南東,27.6,76.9,0,0,0,0
46,2019-07-22T00:45:00,4.8,南南東,9.4,南東,27.7,76.6,0,0,0,0
47,2019-07-22T00:46:00,4.7,南南東,9.4,南東,27.7,76.4,0,0,0,0
48,2019-07-22T00:47:00,4.7,南南東,9.4,南東,27.7,76.4,0,0,0,0
49,2019-07-22T00:48:00,4.8,南南東,9.4,南東,27.7,76.5,0,0,0,0
50,2019-07-22T00:49:00,4.9,南南東,10,南南西,27.7,76.5,0,0,0,0
51,2019-07-22T00:50:00,,"",,"",,,,,,
52,2019-07-22T00:51:00,5.1,南南東,10,南南西,27.6,76.7,0,0,0,0
53,2019-07-22T00:52:00,5.2,南南東,10,南南西,27.5,77.1,0,0,0,0
54,2019-07-22T00:53:00,5.4,南南東,10,南南西,27.6,77.1,0,0,0,0
55,2019-07-22T00:54:00,5.4,南南東,10,南南西,27.6,77,0,0,0,0
56,2019-07-22T00:55:00,5.3,南,10,南南西,27.6,77,0,0,0,0
57,2019-07-22T00:56:00,5.2,南,10,南南西,27.5,77.1,0,0,0,0
58,2019-07-22T00:57:00,5.1,南,10,南南西,27.5,77.2,0,0,0,0
59,2019-07-22T00:58:00,5.1,南,10,南南西,27.5,77.3,0,0,0,0
60,2019-07-22T00:59:00,4.9,南,8.2,南,27.5,77.2,0,0,0,0
61,2019-07-22T01:00:00,5,南,8.2,南,27.6,77.1,0,0,0,0
62,2019-07-22T01:01:00,5,南,8.2,南,27.6,77,0,0,0,0
63,2019-07-22T01:02:00,5.1,南,8.2,南,27.6,76.9,0,0,0,0
64,2019-07-22T01:03:00,5,南,8.2,南,27.6,76.8,0,0,0,0
65,2019-07-22T01:04:00,4.9,南,7.6,南,27.6,76.9,0,0,0,0
66,2019-07-22T01:05:00,4.9,南南東,7.6,南,27.6,76.8,0,0,0,0
67,2019-07-22T01:06:00,5,南南東,7.6,南,27.6,76.9,0,0,0,0
68,2019-07-22T01:07:00,5.1,南南東,7.9,南南東,27.6,76.7,0,0,0,0
69,2019-07-22T01:08:00,5.2,南南東,7.9,南南東,27.6,76.4,0,0,0,0
70,2019-07-22T01:09:00,5.3,南南東,7.9,南南東,27.7,76.3,0,0,0,0
71,2019-07-22T01:10:00,5.2,南南東,8.1,南東,27.7,76.1,0,0,0,0
72,2019-07-22T01:11:00,5.2,南南東,8.1,南東,27.6,76.2,0,0,0,0
73,2019-07-22T01:12:00,5.2,南南東,8.2,南南西,27.6,76.5,0,0,0,0
74,2019-07-22T01:13:00,5.1,南南東,8.2,南南西,27.6,76.6,0,0,0,0
75,2019-07-22T01:14:00,5.1,南南東,8.2,南南西,27.6,76.6,0,0,0,0
76,2019-07-22T01:15:00,5.1,南南東,8.2,南南西,27.6,76.6,0,0,0,0
77,2019-07-22T01:16:00,5,南,8.2,南南西,27.6,76.5,0,0,0,0
78,2019-07-22T01:17:00,4.8,南,8.2,南南西,27.6,76.6,0,0,0,0
79,2019-07-22T01:18:00,4.9,南南東,8.2,南南西,27.6,76.6,0,0,0,0
80,2019-07-22T01:19:00,,"",,"",,,,,,
81,2019-07-22T01:20:00,4.5,南,8.2,南南西,27.5,76.8,0,0,0,0
82,2019-07-22T01:21:00,,"",,"",,,,,,
83,2019-07-22T01:22:00,4.3,南南東,8,南南西,27.6,76.8,0,0,0,0
84,2019-07-22T01:23:00,4.1,南南東,7.1,南,27.6,76.8,0,0,0,0
85,2019-07-22T01:24:00,4.2,南南東,7.1,南,27.6,76.8,0,0,0,0
86,2019-07-22T01:25:00,4.1,南南東,6.8,南東,27.6,76.6,0,0,0,0
87,2019-07-22T01:26:00,4.2,南南東,6.8,南東,27.6,76.6,0,0,0,0
88,2019-07-22T01:27:00,4.3,南南東,8.4,南,27.6,76.5,0,0,0,0
89,2019-07-22T01:28:00,4.3,南南東,8.4,南,27.6,76.4,0,0,0,0
90,2019-07-22T01:29:00,4.5,南南東,8.4,南,27.7,76.1,0,0,0,0
91,2019-07-22T01:30:00,4.7,南南東,8.4,南,27.7,76.2,0,0,0,0
92,2019-07-22T01:31:00,4.9,南南東,8.6,南南東,27.6,76.2,0,0,0,0
93,2019-07-22T01:32:00,5.1,南南東,8.6,南南東,27.7,76.2,0,0,0,0
94,2019-07-22T01:33:00,5.3,南南東,8.6,南南東,27.6,76.3,0,0,0,0
95,2019-07-22T01:34:00,5.3,南南東,8.6,南南東,27.6,76.4,0,0,0,0
96,2019-07-22T01:35:00,5.3,南南東,8.6,南南東,27.6,76.3,0,0,0,0
97,2019-07-22T01:36:00,5.5,南,8.6,南南東,27.6,76.3,0,0,0,0
98,2019-07-22T01:37:00,5.5,南,8.6,南南東,27.6,76.4,0,0,0,0
99,2019-07-22T01:38:00,5.4,南,8.6,南南東,27.6,76.5,0,0,0,0
100,2019-07-22T01:39:00,5.3,南,8.6,南南東,27.6,76.4,0,0,0,0
101,2019-07-22T01:40:00,5.3,南,8.6,南南東,27.6,76.4,0,0,0,0
102,2019-07-22T01:41:00,5.1,南,8.2,南東,27.6,76.5,0,0,0,0
103,2019-07-22T01:42:00,4.8,南,8.1,南,27.5,76.6,0,0,0,0
104,2019-07-22T01:43:00,4.5,南,7.6,南南東,27.5,76.6,0,0,0,0
105,2019-07-22T01:44:00,4.5,南,7.6,南南東,27.5,76.8,0,0,0,0
106,2019-07-22T01:45:00,4.6,南,8.3,南南東,27.5,76.7,0,0,0,0
107,2019-07-22T01:46:00,4.5,南南東,8.3,南南東,27.5,76.6,0,0,0,0
108,2019-07-22T01:47:00,4.3,南南東,8.3,南南東,27.6,76.5,0,0,0,0
109,2019-07-22T01:48:00,4.3,南南東,8.3,南南東,27.6,76.4,0,0,0,0
110,2019-07-22T01:49:00,4.1,南,8.3,南南東,27.5,76.6,0,0,0,0
111,2019-07-22T01:50:00,4.1,南,8.3,南南東,27.5,76.8,0,0,0,0
112,2019-07-22T01:51:00,4.1,南,8.3,南南東,27.5,76.8,0,0,0,0
113,2019-07-22T01:52:00,,"",,"",,,,,,
114,2019-07-22T01:53:00,4.2,南,8.3,南南東,27.5,76.8,0,0,0,0
115,2019-07-22T01:54:00,4.1,南,8.3,南南東,27.5,76.8,0,0,0,0
116,2019-07-22T01:55:00,3.9,南,7.1,南東,27.5,76.7,0,0,0,0
117,2019-07-22T01:56:00,3.8,南,6.2,南南東,27.5,76.7,0,0,0,0
118,2019-07-22T01:57:00,3.8,南,6.2,南南東,27.5,76.8,0,0,0,0
119,2019-07-22T01:58:00,3.8,南,6.2,南南東,27.5,76.9,0,0,0,0
120,2019-07-22T01:59:00,3.8,南,6.2,南南東,27.4,76.9,0,0,0,0
121,2019-07-22T02:00:00,3.8,南,6.2,南南東,27.5,76.8,0,0,0,0
122,2019-07-22T02:01:00,3.8,南,6.4,南南西,27.5,76.6,0,0,0,0
123,2019-07-22T02:02:00,3.9,南,6.4,南南西,27.5,76.7,0,0,0,0
124,2019-07-22T02:03:00,3.9,南,6.4,南南西,27.5,76.7,0,0,0,0
125,2019-07-22T02:04:00,4,南,6.7,南南東,27.5,76.8,0,0,0,0
126,2019-07-22T02:05:00,4,南,6.7,南南東,27.5,76.7,0,0,0,0
127,2019-07-22T02:06:00,4,南,6.7,南南東,27.5,76.8,0,0,0,0
128,2019-07-22T02:07:00,4.1,南,6.7,南南東,27.4,76.9,0,0,0,0
129,2019-07-22T02:08:00,4.1,南南東,6.7,南南東,27.4,76.8,0,0,0,0
130,2019-07-22T02:09:00,4.2,南,6.8,南,27.5,76.8,0,0,0,0
131,2019-07-22T02:10:00,4.3,南,6.8,南,27.5,76.7,0,0,0,0
132,2019-07-22T02:11:00,4.4,南,6.9,南,27.5,76.7,0,0,0,0
133,2019-07-22T02:12:00,4.4,南南東,6.9,南,27.5,76.7,0,0,0,0
134,2019-07-22T02:13:00,4.4,南南東,6.9,南,27.5,76.7,0,0,0,0
135,2019-07-22T02:14:00,4.4,南南東,6.9,南,27.5,76.6,0,0,0,0
136,2019-07-22T02:15:00,4.5,南南東,6.9,南,27.5,76.3,0,0,0,0
137,2019-07-22T02:16:00,4.6,南南東,6.9,南,27.5,76.3,0,0,0,0
138,2019-07-22T02:17:00,4.6,南南東,6.9,南,27.5,76.3,0,0,0,0
139,2019-07-22T02:18:00,4.6,南南東,6.9,南,27.5,76.5,0,0,0,0
140,2019-07-22T02:19:00,4.5,南南東,6.9,南,27.4,76.7,0,0,0,0
141,2019-07-22T02:20:00,4.5,南南東,6.9,南,27.4,76.9,0,0,0,0
142,2019-07-22T02:21:00,,"",,"",,,,,,
143,2019-07-22T02:22:00,4.7,南南東,8.5,南,27.5,76.4,0,0,0,0
144,2019-07-22T02:23:00,,"",,"",,,,,,
145,2019-07-22T02:24:00,4.7,南南東,8.5,南,27.5,76.2,0,0,0,0
146,2019-07-22T02:25:00,4.8,南南東,8.5,南,27.5,76.2,0,0,0,0
147,2019-07-22T02:26:00,4.7,南南東,8.5,南,27.5,76.4,0,0,0,0
148,2019-07-22T02:27:00,4.8,南南東,8.9,南,27.5,76.3,0,0,0,0
149,2019-07-22T02:28:00,5,南,8.9,南,27.5,76,0,0,0,0
150,2019-07-22T02:29:00,5.1,南,8.9,南,27.5,76,0,0,0,0
151,2019-07-22T02:30:00,5.2,南,8.9,南,27.5,76.1,0,0,0,0
152,2019-07-22T02:31:00,5.1,南,8.9,南,27.5,75.9,0,0,0,0
153,2019-07-22T02:32:00,5.2,南,8.9,南,27.5,75.8,0,0,0,0
154,2019-07-22T02:33:00,5.5,南,9.9,南,27.5,75.6,0,0,0,0
155,2019-07-22T02:34:00,5.8,南,10.2,南,27.6,75.5,0,0,0,0
156,2019-07-22T02:35:00,6,南,10.2,南,27.5,75.7,0,0,0,0
157,2019-07-22T02:36:00,6.2,南,10.2,南,27.5,75.8,0,0,0,0
158,2019-07-22T02:37:00,6.2,南,10.2,南,27.6,75.3,0,0,0,0
159,2019-07-22T02:38:00,6.2,南,10.2,南,27.5,75.4,0,0,0,0
160,2019-07-22T02:39:00,6.2,南,10.2,南,27.5,75.6,0,0,0,0
161,2019-07-22T02:40:00,6.4,南,10.2,南,27.5,75.5,0,0,0,0
162,2019-07-22T02:41:00,6.5,南,10.2,南,27.5,75.5,0,0,0,0
163,2019-07-22T02:42:00,6.4,南,10.2,南,27.5,75.5,0,0,0,0
164,2019-07-22T02:43:00,6.3,南,10.2,南,27.5,75.4,0,0,0,0
165,2019-07-22T02:44:00,6,南,9,南東,27.5,75.5,0,0,0,0
166,2019-07-22T02:45:00,5.8,南,9,南東,27.5,75.7,0,0,0,0
167,2019-07-22T02:46:00,5.6,南,9,南東,27.4,75.9,0,0,0,0
168,2019-07-22T02:47:00,5.5,南,8.4,南南東,27.5,75.8,0,0,0,0
169,2019-07-22T02:48:00,5.5,南,8.4,南南東,27.4,75.9,0,0,0,0
170,2019-07-22T02:49:00,5.4,南,8.4,南南東,27.3,76.2,0,0,0,0
171,2019-07-22T02:50:00,5.2,南,8.4,南南東,27.3,76.6,0,0,0,0
172,2019-07-22T02:51:00,5.1,南,8.4,南南東,27.3,76.8,0,0,0,0
173,2019-07-22T02:52:00,,"",,"",,,,,,
174,2019-07-22T02:53:00,4.9,南,8,南,27.2,76.9,0,0,0,0
175,2019-07-22T02:54:00,4.9,南,8,南,27.2,77,0,0,0,0
176,2019-07-22T02:55:00,4.8,南,8,南,27.3,76.8,0,0,0,0
177,2019-07-22T02:56:00,4.9,南,8.2,南南西,27.3,76.7,0,0,0,0
178,2019-07-22T02:57:00,5,南,9.1,南南西,27.3,76.3,0,0,0,0
179,2019-07-22T02:58:00,5.1,南,9.1,南南西,27.3,76.2,0,0,0,0
180,2019-07-22T02:59:00,5.1,南,9.1,南南西,27.3,76.2,0,0,0,0
181,2019-07-22T03:00:00,5.2,南,9.1,南南西,27.3,76.4,0,0,0,0
182,2019-07-22T03:01:00,5.3,南,9.1,南南西,27.3,76.2,0,0,0,0
183,2019-07-22T03:02:00,5.4,南,9.1,南南西,27.3,76.1,0,0,0,0
184,2019-07-22T03:03:00,5.7,南,9.7,南,27.3,76,0,0,0,0
185,2019-07-22T03:04:00,5.9,南,10.2,南西,27.3,75.8,0,0,0,0
186,2019-07-22T03:05:00,6.2,南,10.2,南西,27.3,75.9,0,0,0,0
187,2019-07-22T03:06:00,6.3,南,10.2,南西,27.3,75.8,0,0,0,0
188,2019-07-22T03:07:00,6.4,南,12.6,南,27.3,75.7,0,0,0,0
189,2019-07-22T03:08:00,6.5,南,12.6,南,27.4,75.4,0,0,0,0
190,2019-07-22T03:09:00,6.5,南,12.6,南,27.4,75.5,0,0,0,0
191,2019-07-22T03:10:00,6.6,南,12.6,南,27.3,75.8,0,0,0,0
192,2019-07-22T03:11:00,6.6,南,12.6,南,27.3,76.1,0,0,0,0
193,2019-07-22T03:12:00,6.7,南,12.6,南,27.3,75.8,0,0,0,0
194,2019-07-22T03:13:00,6.5,南,12.6,南,27.3,75.8,0,0,0,0
195,2019-07-22T03:14:00,6.2,南,12.6,南,27.3,75.9,0,0,0,0
196,2019-07-22T03:15:00,6.3,南,13.6,南南西,27.3,76,0,0,0,0
197,2019-07-22T03:16:00,6.5,南,13.6,南南西,27.3,75.9,0,0,0,0
198,2019-07-22T03:17:00,6.3,南,13.6,南南西,27.3,76,0,0,0,0
199,2019-07-22T03:18:00,6.2,南,13.6,南南西,27.2,76.2,0,0,0,0
200,2019-07-22T03:19:00,6.2,南,13.6,南南西,27.2,76.2,0,0,0,0
201,2019-07-22T03:20:00,6.3,南,13.6,南南西,27.2,76.3,0,0,0,0
202,2019-07-22T03:21:00,6.3,南,13.6,南南西,27.2,76.4,0,0,0,0
203,2019-07-22T03:22:00,6.1,南,13.6,南南西,27.2,76.4,0,0,0,0
204,2019-07-22T03:23:00,6.2,南,13.6,南南西,27.2,76.2,0,0,0,0
205,2019-07-22T03:24:00,6.5,南,13.6,南南西,27.3,76,0,0,0,0
206,2019-07-22T03:25:00,,"",,"",,,,,,
207,2019-07-22T03:26:00,6,南,9.7,南南東,27.2,76.2,0,0,0,0
208,2019-07-22T03:27:00,6,南,9.7,南南東,27.2,76.3,0,0,0,0
209,2019-07-22T03:28:00,5.8,南,9.7,南南東,27.2,76.5,0,0,0,0
210,2019-07-22T03:29:00,5.9,南,9.7,南南東,27.2,76.5,0,0,0,0
211,2019-07-22T03:30:00,5.8,南南東,9.7,南南東,27.2,76.5,0,0,0,0
212,2019-07-22T03:31:00,5.8,南,9.7,南南東,27.2,76.6,0,0,0,0
213,2019-07-22T03:32:00,5.7,南,9.7,南南東,27.2,76.7,0,0,0,0
214,2019-07-22T03:33:00,5.6,南,9.7,南南東,27.1,76.8,0,0,0,0
215,2019-07-22T03:34:00,5.6,南,8.9,南,27.1,76.8,0,0,0,0
216,2019-07-22T03:35:00,5.7,南南東,8.9,南,27.2,76.7,0,0,0,0
217,2019-07-22T03:36:00,5.8,南南東,8.9,南,27.1,76.8,0,0,0,0
218,2019-07-22T03:37:00,5.8,南南東,8.9,南,27.1,77,0,0,0,0
219,2019-07-22T03:38:00,6,南,8.9,南,27.1,77.3,0,0,0,0
220,2019-07-22T03:39:00,6,南南東,9.1,南南東,27,77.5,0,0,0,0
221,2019-07-22T03:40:00,6.1,南南東,9.1,南南東,27,77.6,0,0,0,0
222,2019-07-22T03:41:00,6.1,南,9.1,南南東,27,77.9,0,0,0,0
223,2019-07-22T03:42:00,6.1,南,9.1,南南東,26.9,78.3,0,0,0,0
224,2019-07-22T03:43:00,6.1,南,9.1,南南東,26.9,78.4,0,0,0,0
225,2019-07-22T03:44:00,6,南,9.1,南南東,26.9,78.4,0,0,0,0
226,2019-07-22T03:45:00,6,南,9.1,南南東,26.9,78.4,0,0,0,0
227,2019-07-22T03:46:00,6,南,9.2,南,26.9,78.4,0,0,0,0
228,2019-07-22T03:47:00,6.1,南,9.4,南,26.9,78.2,0,0,0,0
229,2019-07-22T03:48:00,6.1,南,9.4,南,26.9,78.2,0,0,0,0
230,2019-07-22T03:49:00,6,南,9.4,南,26.9,78.2,0,0,0,0
231,2019-07-22T03:50:00,5.8,南,9.4,南,26.8,78.5,0,0,0,0
232,2019-07-22T03:51:00,5.7,南,9.4,南,26.8,78.7,0,0,0,0
233,2019-07-22T03:52:00,5.6,南,9.4,南,26.8,78.9,0,0,0,0
234,2019-07-22T03:53:00,5.5,南,9.4,南,26.7,79.1,0,0,0,0
235,2019-07-22T03:54:00,5.4,南,9.4,南,26.7,79.1,0,0,0,0
236,2019-07-22T03:55:00,5.4,南,9.4,南,26.7,79.5,0,0,0,0
237,2019-07-22T03:56:00,,"",,"",,,,,,
238,2019-07-22T03:57:00,4.9,南,8.8,南,26.7,79.5,0,0,0,0
239,2019-07-22T03:58:00,4.8,南,8.4,南南東,26.6,79.7,0,0,0,0
240,2019-07-22T03:59:00,4.7,南,8.4,南南東,26.6,80,0,0,0,0
241,2019-07-22T04:00:00,4.6,南,8.4,南南東,26.6,80.2,0,0,0,0
242,2019-07-22T04:01:00,4.5,南,8.4,南南東,26.6,80.2,0,0,0,0
243,2019-07-22T04:02:00,4.5,南,8.4,南南東,26.6,80.3,0,0,0,0
244,2019-07-22T04:03:00,4.4,南,8.4,南南東,26.6,80.3,0,0,0,0
245,2019-07-22T04:04:00,4.2,南,8.3,南,26.6,80.4,0,0,0,0
246,2019-07-22T04:05:00,4,南,7.1,南,26.5,80.6,0,0,0,0
247,2019-07-22T04:06:00,3.8,南,7,南南東,26.6,80.6,0,0,0,0
248,2019-07-22T04:07:00,4,南,6.5,南,26.6,80.4,0,0,0,0
249,2019-07-22T04:08:00,3.9,南,6.5,南,26.6,80.3,0,0,0,0
250,2019-07-22T04:09:00,3.9,南,6.5,南,26.5,80.7,0,0,0,0
